User: anonymous   Login
Location: Melbourne
(37.8170°S, 144.9670°E)
Time: 13:40:07
(UTC+10:00)
Language:

Cosmos 962 Rocket - Orbit

View from above orbital plane
View from above orbital plane
View from above satellite
View from above satellite

Ground track
Ground track

The orbit data is extracted from the following two-line orbital elements,

1 10461U 77107B   16267.91620741 +.00000030 +00000-0 +15057-4 0  9991
2 10461 082.9504 211.0653 0033381 170.8652 247.4111 13.76763756953858
Epoch (UTC): 23 September 2016 21:59:20
Eccentricity: 0.0033381
inclination: 82.9504°
perigee height: 951 km
apogee height: 1000 km
right ascension of ascending node: 211.0653°
argument of perigee: 170.8652°
revolutions per day: 13.76763756
mean anomaly at epoch: 247.4111°
orbit number at epoch: 95385

The dashed part of the orbit path shows where the satellite is in the earth's shadow,  

DLR